Flag for Malaysia Weather past 2 weeks in Kuching, Malaysia

Now
79 °F

Partly sunny.


Feels Like: 83 °F
Forecast: 79 / 90 °F
Wind: 3 mph from Northwest

Location: Kuching Airport

Current Time: May 23, 2015 at 7:09:01 PM

Latest Report: May 23, 2015 at 6:30 PM


Visibility: N/A

Pressure: 29.80 "Hg

Humidity: 94%

Dew point: 77 °F

Location of KuchingLocation

Historic Weather in Kuching — Graph

°F

Kuching temperature yesterday

Maximum temperature yesterday: 90 °F (at 1:30 PM)
Minimum temperature yesterday: 75 °F (at 5:30 PM)
Average temperature yesterday: 80 °F

Past Weeks' High & Low Weather Summary

 TemperatureHumidityPressure
High95 °F (May 21, 2:30 PM)100% (May 9, 3:00 AM)29.92 "Hg (May 9, 3:00 AM)
Low75 °F (May 10, 3:00 AM)56% (May 10, 3:00 PM)29.71 "Hg (May 8, 6:00 PM)
Average82 °F86%29.83 "Hg
* Reported May 8 6:00 PM — May 23 6:00 PM, Kuching, Weather by CustomWeather, © 2015

Note: Actual official high and low records may vary slightly from our data, if they occured in-between our weather recording intervals... More about our weather records

Advertising

Kuching weather history for previous 24 hours

 ConditionsComfort  
Time TempWeatherWind HumidityBarometerVisibility
6:00 PM
Sat, May 23
79 °FBroken clouds.3 mph89%29.80 "HgN/A
5:30 PM77 °FThunderstorms. Broken clouds.2 mph94%29.80 "Hg4 mi
5:00 PM79 °FStrong thunderstorms. Broken clouds.5 mph79%29.80 "Hg1 mi
4:30 PM88 °FThunderstorms. Broken clouds.5 mph70%29.77 "HgN/A
4:00 PM90 °FSprinkles. Broken clouds.1 mph63%29.77 "HgN/A
3:30 PM90 °FBroken clouds.2 mph63%29.77 "HgN/A
3:00 PM90 °FBroken clouds.5 mph63%29.77 "HgN/A
2:30 PM90 °FBroken clouds.3 mph63%29.80 "HgN/A
1:30 PM90 °FBroken clouds.5 mph63%29.83 "HgN/A
1:00 PM91 °FBroken clouds.5 mph67%29.83 "HgN/A
12:30 PM91 °FBroken clouds.6 mph63%29.86 "HgN/A
12:00 PM90 °FBroken clouds.6 mph67%29.86 "HgN/A
11:30 AM88 °FBroken clouds.6 mph70%29.89 "HgN/A
10:30 AM86 °FBroken clouds.2 mph75%29.89 "HgN/A
10:00 AM84 °FBroken clouds.3 mph79%29.89 "HgN/A
9:30 AM82 °FBroken clouds.5 mph84%29.89 "HgN/A
9:00 AM81 °FPartly sunny.5 mph89%29.89 "HgN/A
8:30 AM77 °FPartly sunny.3 mph100%29.89 "HgN/A
8:00 AM77 °FPartly sunny.3 mph94%29.89 "HgN/A
7:30 AM75 °FPartly sunny.3 mph100%29.86 "HgN/A
7:00 AM75 °FPartly sunny.2 mph100%29.86 "HgN/A
6:30 AM75 °FBroken clouds.3 mph100%29.86 "HgN/A
6:00 AM75 °FPassing clouds.1 mph100%29.86 "Hg5 mi
5:30 AM75 °FPartly cloudy.3 mph100%29.83 "Hg4 mi
5:00 AM75 °FPartly cloudy.3 mph100%29.83 "Hg4 mi
4:30 AM77 °FPartly cloudy.No wind94%29.83 "Hg4 mi
4:00 AM77 °FPartly cloudy.No wind94%29.83 "Hg4 mi
3:30 AM77 °FPartly cloudy.2 mph94%29.83 "Hg4 mi
3:00 AM77 °FPartly cloudy.1 mph94%29.83 "Hg4 mi
2:30 AM77 °FPartly cloudy.1 mph94%29.86 "Hg5 mi
2:00 AM77 °FPartly cloudy.No wind100%29.86 "Hg5 mi
1:30 AM77 °FPartly cloudy.2 mph100%29.89 "HgN/A
1:00 AM77 °FPartly cloudy.2 mph100%29.89 "HgN/A
12:30 AM77 °FPartly cloudy.3 mph100%29.89 "HgN/A
12:00 AM77 °FPartly cloudy.No wind100%29.89 "HgN/A
11:30 PM
Fri, May 22
77 °FPartly cloudy.1 mph100%29.89 "HgN/A
11:00 PM77 °FPartly cloudy.2 mph100%29.89 "HgN/A
10:30 PM77 °FPartly cloudy.2 mph100%29.89 "HgN/A
10:00 PM77 °FPartly cloudy.2 mph94%29.89 "HgN/A
9:30 PM77 °FPartly cloudy.2 mph100%29.86 "HgN/A
9:00 PM77 °FPartly cloudy.No wind94%29.86 "HgN/A
8:30 PM77 °FPartly cloudy.2 mph94%29.86 "HgN/A
8:00 PM77 °FPartly cloudy.2 mph94%29.83 "HgN/A
7:30 PM77 °FPartly cloudy.2 mph94%29.83 "HgN/A
7:00 PM77 °FPartly cloudy.3 mph94%29.83 "HgN/A
Weather by CustomWeather, © 2015

See weather overviewHow to use our weather pages